User: anonymous   Login
Location: Airlie Beach - Cannonvale QLD, Australia
(20.2768°S, 148.7558°E)
Time: 11:32:12
(UTC+10:00)
Language:

Envisat - Orbit

View from above orbital plane
View from above orbital plane
View from above satellite
View from above satellite

Ground track
Ground track

The orbit data is extracted from the following two-line orbital elements,

1 27386U 02009A   24201.85134010  .00000321  00000-0  11856-3 0  9998
2 27386  98.2842 161.8082 0001391  84.7482 328.1921 14.38609445173274
Epoch (UTC): 19 July 2024 20:25:55
Eccentricity: 0.0001391
inclination: 98.2842°
perigee height: 762 km
apogee height: 764 km
right ascension of ascending node: 161.8082°
argument of perigee: 84.7482°
revolutions per day: 14.38609445
mean anomaly at epoch: 328.1921°
orbit number at epoch: 17327

The dashed part of the orbit path shows where the satellite is in the earth's shadow,  

DLR